Regional Weather Roundup
Issued by NWS Jackson, KY

Home | Current Version | Previous Version | Text Only | Print | Product List | Glossary On
Versions: 1 2 3 4 5 6 7 8 9 10 11 12 13 14 15 16 17 18 19 20 21 22 23 24 25 26 27 28 29 30 31 32 33 34 35 36 37 38 39 40 41 42 43 44 45 46 47 48 49 50
000
ASUS43 KJKL 211611
RWRJKL

EAST KENTUCKY HOURLY WEATHER ROUNDUP
NATIONAL WEATHER SERVICE JACKSON KY
1200 PM EDT SUN SEP 21 2014

NOTE: "FAIR" INDICATES FEW OR NO CLOUDS BELOW 12,000 FEET WITH
NO SIGNIFICANT WEATHER AND/OR OBSTRUCTIONS TO VISIBILITY.

* THESE REPORTS ARE NOT UNDER NWS QUALITY CONTROL AND MAY NOT
  REPORT WEATHER SUCH AS PRECIPITATION AND FOG.

KYZ079-080-083-085-087-088-110-112-115-119-120-211700
...EASTERN KENTUCKY...

CITY           SKY/WX    TMP DP  RH WIND       PRES   REMARKS
JACKSON        CLOUDY    71  65  81 VRB5      29.93F
LONDON         PTSUNNY   74  65  73 SW9       29.96F
SOMERSET*      CLOUDY    72  64  78 W10       29.97F
MONTICELLO*    CLOUDY    76  67  73 SW10      29.98F
WILLIAMSBURG*  CLOUDY    73  68  83 W7        29.97F
MIDDLESBORO*   PTSUNNY   75  65  71 S6        29.98F
HARLAN APT*    CLOUDY    72  63  73 MISG      29.99F
BLACK MTN*       N/A     61  61 100 SW6         N/A
PIKEVILLE APT* CLOUDY    70  64  83 SW6       29.94S
BIG SANDY*     CLOUDY    73  67  80 SW7       29.91F
MOREHEAD APT*  CLOUDY    73  66  78 SW10      29.91R
$$

KYZ035-036-041-042-044-050-067-078-099-211700
...CENTRAL KENTUCKY...

CITY           SKY/WX    TMP DP  RH WIND       PRES   REMARKS
MT STERLING*   CLOUDY    73  68  83 W6        29.91S
FLEMING/MASON* CLOUDY    75  66  73 W16       29.88S
DANVILLE*      CLOUDY    73  66  78 W9        29.94S
RICHMOND*      CLOUDY    72  64  78 SW7       29.92S
LEXINGTON      PTSUNNY   78  67  68 W14G22    29.90F
FRANKFORT      PTSUNNY   76  65  68 W9        29.88F
$$

KYZ091>093-OHZ055-061-077-WVZ005-015-034-035-042-211700
...SOUTHERN OHIO/WEST VIRGINIA...

CITY           SKY/WX    TMP DP  RH WIND       PRES   REMARKS
COVINGTON      PTSUNNY   77  63  61 W17G26    29.86S
COLUMBUS       MOSUNNY   81  60  48 W18G24    29.77S
DAYTON         MOSUNNY   74  44  34 NW22G29   29.84R
WILMINGTON     MOSUNNY   75  60  59 W17G26    29.82S
HUNTINGTON     CLOUDY    72  66  81 S10       29.86F
CHARLESTON     CLOUDY    74  66  76 SW12      29.86F
PINEVILLE*     PTSUNNY   77  68  74 MISG      29.98F
BECKLEY        PTSUNNY   71  61  70 SW12      29.96F
BLUEFIELD      PTSUNNY   74  61  63 W14G23    29.99F
$$

VAZ002-007-008-TNZ017-027-036-066-071-211700
...SOUTHWEST VIRGINIA/EAST TENNESSEE...

CITY           SKY/WX    TMP DP  RH WIND       PRES   REMARKS
WISE*          MOSUNNY   72  61  68 SW15      30.02F
JONESVILLE*    PTSUNNY   70  64  83 CALM      30.02F
ABINGDON*      CLOUDY    72  64  74 W10G16    30.02F
BRISTOL        PTSUNNY   77  61  57 SW12      30.01F
KNOXVILLE      SUNNY     80  63  55 SW12      30.00F
OAK RIDGE      MOSUNNY   78  64  61 W7        30.01F
CROSSVILLE     PTSUNNY   76  63  64 W13G20    30.05F
NASHVILLE      PTSUNNY   82  67  60 W9G24     29.99S
$$

...KEY TO REMARKS...
VSB - VISIBILITY IN MILES
WCI - WIND CHILL INDEX
HX  - HEAT INDEX

$$



USA.gov is the U.S. government's official web portal to all federal, state and local government web resources and services.